Вернуться в каталог

COSMOS 1233

АктивенНавигацияLEO
NORAD 12112·PAYLOAD·🇷🇺 Russia

Запущен Dec 23, 1980 с Plesetsk Cosmodrome

Loading…

Ближайшие Пролёты (ближайшие 24 часа)

TLE

СвежийSource: Space-Track

Эпоха: Sep 14, 2026, 14:11 UTC

1 12112U 80102F   26257.59157836 -.00000005  00000-0  70997-4 0  9996
2 12112  73.9929 294.0339 0029677 346.4712 181.4777 12.55586407 95750

Отслеживайте COSMOS 1233 в реальном времени с AllMySat

Download on the App Store